ASA180 KSEA-LIRF

Flight info

Callsign ASA180
Flight time N/A
Altitude 35000
Route ALPSE DCT YDC DCT WELLF DCT YEGGA DCT RUBSU DCT YSF DCT 60N104W 62N100W 65N090W/N0498F370 66N080W 67N070W/M085F370 DCT CANEL DCT 68N060W 68N050W 67N040W 64N030W 61N020W/M085F390 DCT ERAKA/N0487F390 DCT ETSOM DCT MAKUX DCT SOSIM L15 MOTOX DCT RUCAC DCT LESDO DCT BUBLI DCT LUVAL DCT SHARA DCT DEVDI DCT ODINA DCT EKPAL DCT TINKU DCT XIBIL
Aircraft B789/H-SDE1E2E3FGHIJ2J3J4J5M1RWXY/LB1D1

Departure

Time 2026-05-04 14:26
Airport Seattle–Tacoma International Airport (KSEA)

Arrival

Time N/A
Airport Rome–Fiumicino Leonardo da Vinci International Airport (LIRF)
Time Latitude Longitude Altitude Speed Heading
2026-05-04 14:11 47.43950 -122.30259 399 ft 0 kts 155°
2026-05-04 14:17 47.43972 -122.30295 394 ft 4 kts 106°
2026-05-04 14:18 47.43980 -122.30328 398 ft 3 kts 123°
2026-05-04 14:18 47.44023 -122.30345 396 ft 4 kts 204°
2026-05-04 14:19 47.44030 -122.30341 396 ft 0 kts 205°
2026-05-04 14:20 47.44025 -122.30344 395 ft 1 kts 206°
2026-05-04 14:20 47.44021 -122.30350 397 ft 1 kts 220°
2026-05-04 14:21 47.43989 -122.30405 397 ft 8 kts 239°
2026-05-04 14:21 47.43967 -122.30510 396 ft 10 kts 285°
2026-05-04 14:21 47.44004 -122.30607 399 ft 13 kts 312°
2026-05-04 14:21 47.44096 -122.30635 397 ft 15 kts 359°
2026-05-04 14:22 47.44214 -122.30634 395 ft 22 kts
2026-05-04 14:22 47.44392 -122.30632 396 ft 29 kts
2026-05-04 14:22 47.44627 -122.30632 398 ft 36 kts
2026-05-04 14:22 47.44930 -122.30632 398 ft 43 kts 360°
2026-05-04 14:23 47.45575 -122.30627 398 ft 53 kts
2026-05-04 14:23 47.45931 -122.30621 396 ft 43 kts
2026-05-04 14:23 47.46226 -122.30618 399 ft 33 kts
2026-05-04 14:24 47.46379 -122.30654 396 ft 13 kts 303°
2026-05-04 14:24 47.46363 -122.30759 396 ft 10 kts 233°
2026-05-04 14:24 47.46325 -122.30781 397 ft 0 kts 178°
2026-05-04 14:25 47.46217 -122.30782 398 ft 41 kts 179°
2026-05-04 14:25 47.45669 -122.30785 398 ft 106 kts 180°
2026-05-04 14:26 47.44811 -122.30794 398 ft 156 kts 180°
2026-05-04 14:26 47.43508 -122.30816 522 ft 194 kts 186°
2026-05-04 14:26 47.42222 -122.30871 1312 ft 199 kts 183°
2026-05-04 14:26 47.40838 -122.30363 2020 ft 213 kts 141°
2026-05-04 14:27 47.40139 -122.28580 2838 ft 208 kts 94°
2026-05-04 14:27 47.40445 -122.26391 3032 ft 231 kts 52°
2026-05-04 14:27 47.41752 -122.24999 3365 ft 247 kts 14°
2026-05-04 14:27 47.43498 -122.24570 3974 ft 257 kts
2026-05-04 14:28 47.45283 -122.24332 4896 ft 259 kts
2026-05-04 14:28 47.47065 -122.23979 5680 ft 264 kts
2026-05-04 14:28 47.48893 -122.23541 6473 ft 268 kts
2026-05-04 14:28 47.50750 -122.23113 7243 ft 272 kts
2026-05-04 14:29 47.54557 -122.22281 8754 ft 279 kts
2026-05-04 14:29 47.58456 -122.21413 10169 ft 288 kts
2026-05-04 14:30 47.60496 -122.20959 10301 ft 314 kts
2026-05-04 14:30 47.62754 -122.20455 10367 ft 340 kts
2026-05-04 14:30 47.67694 -122.19358 11201 ft 364 kts
2026-05-04 14:31 47.70221 -122.18794 11886 ft 368 kts
2026-05-04 14:31 47.75346 -122.17649 13279 ft 374 kts
2026-05-04 14:32 47.80483 -122.16499 14538 ft 379 kts
2026-05-04 14:32 47.83108 -122.15911 15147 ft 382 kts
2026-05-04 14:32 47.85751 -122.15317 15762 ft 384 kts
2026-05-04 14:32 47.88397 -122.14724 16338 ft 386 kts
2026-05-04 14:33 47.91068 -122.14123 16904 ft 389 kts
2026-05-04 14:33 47.93755 -122.13517 17477 ft 392 kts
2026-05-04 14:33 47.96459 -122.12908 18062 ft 394 kts
2026-05-04 14:33 47.99184 -122.12294 18551 ft 397 kts
2026-05-04 14:34 48.01916 -122.11677 19037 ft 399 kts
2026-05-04 14:34 48.04637 -122.11062 19494 ft 400 kts
2026-05-04 14:34 48.07406 -122.10435 19977 ft 403 kts
2026-05-04 14:34 48.10190 -122.09805 20432 ft 405 kts
2026-05-04 14:35 48.12978 -122.09154 20864 ft 406 kts 11°
2026-05-04 14:35 48.14791 -122.08413 21132 ft 409 kts 18°
2026-05-04 14:35 48.17393 -122.06653 21546 ft 413 kts 29°
2026-05-04 14:35 48.19745 -122.04135 21963 ft 418 kts 39°
2026-05-04 14:36 48.21913 -122.01202 22315 ft 420 kts 39°
2026-05-04 14:36 48.24081 -121.98249 22715 ft 422 kts 39°
2026-05-04 14:36 48.26262 -121.95256 23082 ft 425 kts 39°
2026-05-04 14:36 48.28451 -121.92257 23462 ft 427 kts 39°
2026-05-04 14:37 48.30656 -121.89245 23791 ft 428 kts 39°
2026-05-04 14:37 48.32831 -121.86265 24112 ft 429 kts 39°
2026-05-04 14:37 48.35041 -121.83229 24403 ft 430 kts 39°
2026-05-04 14:37 48.37256 -121.80184 24693 ft 432 kts 39°
2026-05-04 14:38 48.39477 -121.77128 25018 ft 433 kts 39°
2026-05-04 14:38 48.41707 -121.74057 25294 ft 435 kts 39°
2026-05-04 14:38 48.43955 -121.70954 25634 ft 436 kts 39°
2026-05-04 14:38 48.46195 -121.67861 25948 ft 438 kts 39°
2026-05-04 14:39 48.48416 -121.64790 26247 ft 439 kts 39°
2026-05-04 14:39 48.50671 -121.61668 26524 ft 440 kts 40°
2026-05-04 14:39 48.52926 -121.58540 26755 ft 442 kts 39°
2026-05-04 14:40 48.57461 -121.52244 27390 ft 443 kts 39°
2026-05-04 14:40 48.59740 -121.49071 27614 ft 446 kts 39°
2026-05-04 14:40 48.62025 -121.45885 27794 ft 448 kts 39°
2026-05-04 14:40 48.64321 -121.42683 28120 ft 449 kts 39°
2026-05-04 14:41 48.66592 -121.39511 28395 ft 450 kts 40°
2026-05-04 14:41 48.68893 -121.36290 28663 ft 451 kts 40°
2026-05-04 14:41 48.73515 -121.29811 29140 ft 453 kts 40°
2026-05-04 14:42 48.78162 -121.23283 29540 ft 456 kts 40°
2026-05-04 14:42 48.80462 -121.20043 29742 ft 457 kts 40°
2026-05-04 14:42 48.82797 -121.16748 30041 ft 457 kts 40°
2026-05-04 14:43 48.85129 -121.13454 30211 ft 457 kts 39°
2026-05-04 14:43 48.87468 -121.10151 30323 ft 459 kts 40°
2026-05-04 14:43 48.89810 -121.06837 30487 ft 459 kts 39°
2026-05-04 14:43 48.92123 -121.03554 30638 ft 461 kts 39°
2026-05-04 14:44 48.94467 -121.00228 30820 ft 461 kts 39°
2026-05-04 14:44 48.96819 -120.96888 30888 ft 465 kts 40°
2026-05-04 14:44 48.99170 -120.93541 31132 ft 463 kts 40°
2026-05-04 14:44 49.01529 -120.90175 31349 ft 463 kts 39°
2026-05-04 14:45 49.03877 -120.86823 31719 ft 460 kts 39°
2026-05-04 14:45 49.06207 -120.83495 31952 ft 460 kts 39°
2026-05-04 14:45 49.08536 -120.80164 32234 ft 458 kts 39°
2026-05-04 14:45 49.10853 -120.76843 32538 ft 456 kts 39°
2026-05-04 14:46 49.13169 -120.73518 32825 ft 454 kts 39°
2026-05-04 14:46 49.15470 -120.70214 33093 ft 453 kts 39°
2026-05-04 14:46 49.17765 -120.66911 33373 ft 451 kts 39°
2026-05-04 14:46 49.20051 -120.63617 33702 ft 450 kts 39°
2026-05-04 14:47 49.22301 -120.60372 33985 ft 448 kts 39°
2026-05-04 14:47 49.24563 -120.57104 34249 ft 446 kts 39°
2026-05-04 14:47 49.26822 -120.53836 34462 ft 445 kts 39°
2026-05-04 14:47 49.29066 -120.50588 34672 ft 444 kts 38°
2026-05-04 14:48 49.31322 -120.47316 34814 ft 445 kts 38°
2026-05-04 14:48 49.33575 -120.44045 34961 ft 445 kts 38°
2026-05-04 14:48 49.37983 -120.37371 35047 ft 453 kts 45°
2026-05-04 14:49 49.41620 -120.29381 35026 ft 455 kts 50°
2026-05-04 14:49 49.45125 -120.21291 35012 ft 454 kts 50°
2026-05-04 14:50 49.48606 -120.13208 34983 ft 453 kts 50°
2026-05-04 14:50 49.52093 -120.05100 34966 ft 453 kts 50°
2026-05-04 14:51 49.55570 -119.96983 34942 ft 454 kts 50°
2026-05-04 14:51 49.59027 -119.88891 34946 ft 455 kts 50°
2026-05-04 14:52 49.62508 -119.80714 34934 ft 454 kts 50°
2026-05-04 14:52 49.65971 -119.72561 34931 ft 455 kts 50°
2026-05-04 14:53 49.69446 -119.64349 34924 ft 457 kts 50°
2026-05-04 14:53 49.72918 -119.56121 34926 ft 457 kts 50°
2026-05-04 14:54 49.76361 -119.47934 34928 ft 457 kts 50°
2026-05-04 14:54 49.79828 -119.39666 34925 ft 457 kts 50°
2026-05-04 14:55 49.83287 -119.31390 34965 ft 457 kts 50°
2026-05-04 14:55 49.86740 -119.23108 34916 ft 456 kts 50°
2026-05-04 14:56 49.90171 -119.14845 34933 ft 458 kts 50°
2026-05-04 14:56 49.93615 -119.06527 34949 ft 457 kts 50°
2026-05-04 14:57 49.97026 -118.98267 34930 ft 457 kts 50°
2026-05-04 14:57 50.00458 -118.89925 34926 ft 458 kts 50°
2026-05-04 14:58 50.03885 -118.81568 34933 ft 457 kts 50°
2026-05-04 14:58 50.07285 -118.73257 34939 ft 458 kts 50°
2026-05-04 14:59 50.10707 -118.64860 34934 ft 459 kts 50°
2026-05-04 15:00 50.15820 -118.52267 34947 ft 460 kts 50°
2026-05-04 15:00 50.19225 -118.43840 34942 ft 456 kts 50°
2026-05-04 15:01 50.24348 -118.31126 34950 ft 461 kts 50°
2026-05-04 15:01 50.27721 -118.22706 34941 ft 458 kts 50°
2026-05-04 15:02 50.31115 -118.14227 34956 ft 459 kts 50°
2026-05-04 15:02 50.34509 -118.05706 34955 ft 459 kts 50°
2026-05-04 15:03 50.37867 -117.97252 34966 ft 459 kts 50°
2026-05-04 15:03 50.41243 -117.88725 34967 ft 459 kts 50°
2026-05-04 15:04 50.44625 -117.80156 34959 ft 461 kts 50°
2026-05-04 15:04 50.47974 -117.71637 34970 ft 461 kts 50°
2026-05-04 15:05 50.51351 -117.63029 34959 ft 462 kts 50°
2026-05-04 15:05 50.54700 -117.54452 34975 ft 462 kts 50°
2026-05-04 15:06 50.58061 -117.45825 34981 ft 463 kts 50°
2026-05-04 15:07 50.63095 -117.32840 34987 ft 462 kts 50°
2026-05-04 15:07 50.66427 -117.24221 34987 ft 464 kts 50°
2026-05-04 15:08 50.69779 -117.15506 34986 ft 464 kts 50°
2026-05-04 15:08 50.73127 -117.06782 34996 ft 464 kts 50°
2026-05-04 15:09 50.76468 -116.98042 35008 ft 463 kts 50°
2026-05-04 15:09 50.79792 -116.89319 35011 ft 463 kts 50°
2026-05-04 15:10 50.84758 -116.76229 35064 ft 464 kts 50°
2026-05-04 15:11 50.89861 -116.63196 35046 ft 452 kts 43°
2026-05-04 15:11 50.94247 -116.56329 35036 ft 440 kts 28°
2026-05-04 15:12 50.99255 -116.50646 35016 ft 440 kts 28°
2026-05-04 15:12 51.04206 -116.45038 35035 ft 437 kts 28°
2026-05-04 15:13 51.09194 -116.39379 35020 ft 438 kts 28°
2026-05-04 15:13 51.14121 -116.33765 35026 ft 440 kts 28°
2026-05-04 15:14 51.18302 -116.28994 35038 ft 440 kts 28°
2026-05-04 15:14 51.23272 -116.23301 35031 ft 439 kts 28°
2026-05-04 15:15 51.28248 -116.17594 35047 ft 439 kts 28°
2026-05-04 15:15 51.33198 -116.11898 35055 ft 437 kts 28°
2026-05-04 15:16 51.40569 -116.03387 35086 ft 437 kts 28°
2026-05-04 15:17 51.47972 -115.94806 35091 ft 437 kts 28°
2026-05-04 15:17 51.55328 -115.86240 35110 ft 439 kts 28°
2026-05-04 15:18 51.60272 -115.80466 35099 ft 439 kts 28°
2026-05-04 15:19 51.67697 -115.71764 35100 ft 440 kts 28°
2026-05-04 15:19 51.75082 -115.63072 35090 ft 438 kts 28°
2026-05-04 15:20 51.80023 -115.57238 35119 ft 441 kts 28°
2026-05-04 15:20 51.84985 -115.51360 35106 ft 442 kts 28°
2026-05-04 15:21 51.89939 -115.45476 35109 ft 441 kts 28°
2026-05-04 15:22 51.97338 -115.36660 35113 ft 441 kts 28°
2026-05-04 15:22 52.04741 -115.27801 35137 ft 440 kts 28°
2026-05-04 15:23 52.09675 -115.21874 35102 ft 441 kts 28°
2026-05-04 15:23 52.14612 -115.15928 35104 ft 441 kts 28°
2026-05-04 15:24 52.24488 -115.03983 35101 ft 442 kts 28°
2026-05-04 15:25 52.29403 -114.98014 35103 ft 443 kts 28°
2026-05-04 15:26 52.36820 -114.88969 35088 ft 441 kts 28°
2026-05-04 15:26 52.44182 -114.79959 35091 ft 439 kts 28°
2026-05-04 15:27 52.51517 -114.70943 35104 ft 441 kts 28°
2026-05-04 15:28 52.58891 -114.61834 35106 ft 440 kts 28°
2026-05-04 15:29 52.66227 -114.52741 35122 ft 440 kts 28°
2026-05-04 15:30 52.83314 -114.31399 35130 ft 440 kts 28°
2026-05-04 15:31 52.90626 -114.22202 35137 ft 440 kts 28°
2026-05-04 15:32 53.02785 -114.06814 35149 ft 440 kts 28°
2026-05-04 15:34 53.14965 -113.91291 35156 ft 440 kts 28°
2026-05-04 15:34 53.22307 -113.82191 35157 ft 440 kts 26°
2026-05-04 15:35 53.29792 -113.73152 35167 ft 440 kts 26°
2026-05-04 15:36 53.37235 -113.64136 35148 ft 438 kts 26°
2026-05-04 15:36 53.42176 -113.58136 35148 ft 439 kts 26°
2026-05-04 15:37 53.47091 -113.52140 35164 ft 439 kts 26°
2026-05-04 15:37 53.52040 -113.46089 35169 ft 440 kts 26°
2026-05-04 15:38 53.56990 -113.40019 35224 ft 441 kts 27°
2026-05-04 15:38 53.61959 -113.34067 35194 ft 434 kts 24°
2026-05-04 15:39 53.67059 -113.28418 35186 ft 436 kts 24°
2026-05-04 15:40 53.74661 -113.19959 35190 ft 436 kts 24°
2026-05-04 15:40 53.79701 -113.14324 35184 ft 437 kts 24°
2026-05-04 15:41 53.84777 -113.08640 35226 ft 438 kts 25°
2026-05-04 15:41 53.89872 -113.02915 35188 ft 439 kts 25°
2026-05-04 15:42 53.94947 -112.97195 35185 ft 439 kts 25°
2026-05-04 15:42 54.00047 -112.91431 35190 ft 440 kts 25°
2026-05-04 15:43 54.05156 -112.85639 35177 ft 440 kts 25°
2026-05-04 15:43 54.10263 -112.79831 35178 ft 440 kts 25°
2026-05-04 15:44 54.15369 -112.74013 35171 ft 445 kts 26°
2026-05-04 15:44 54.20547 -112.68086 35173 ft 449 kts 26°
2026-05-04 15:45 54.25693 -112.62178 35169 ft 447 kts 26°
2026-05-04 15:45 54.30858 -112.56236 35169 ft 446 kts 26°
2026-05-04 15:46 54.35887 -112.50433 35161 ft 446 kts 26°
2026-05-04 15:46 54.40814 -112.44725 35227 ft 447 kts 26°
2026-05-04 15:47 54.46016 -112.38687 35180 ft 455 kts 27°
2026-05-04 15:47 54.51237 -112.32597 35162 ft 455 kts 27°
2026-05-04 15:48 54.56467 -112.26487 35168 ft 454 kts 27°
2026-05-04 15:48 54.64308 -112.17286 35152 ft 455 kts 27°
2026-05-04 15:49 54.68689 -112.12127 35164 ft 455 kts 27°
2026-05-04 15:49 54.73947 -112.05919 35173 ft 461 kts 28°
2026-05-04 15:50 54.79203 -111.99686 35171 ft 460 kts 28°
2026-05-04 15:50 54.84478 -111.93417 35169 ft 459 kts 28°
2026-05-04 15:51 54.89722 -111.87161 35165 ft 457 kts 28°
2026-05-04 15:51 54.94968 -111.80886 35164 ft 457 kts 28°
2026-05-04 15:52 55.00205 -111.74600 35166 ft 458 kts 28°
2026-05-04 15:52 55.05454 -111.68279 35164 ft 458 kts 28°
2026-05-04 15:53 55.10699 -111.61942 35169 ft 459 kts 28°
2026-05-04 15:53 55.15918 -111.55616 35174 ft 459 kts 28°
2026-05-04 15:54 55.21169 -111.49231 35170 ft 460 kts 28°
2026-05-04 15:54 55.26408 -111.42838 35218 ft 458 kts 28°
2026-05-04 15:55 55.31669 -111.36403 35167 ft 463 kts 29°
2026-05-04 15:55 55.36946 -111.29917 35173 ft 463 kts 29°
2026-05-04 15:56 55.42227 -111.23412 35175 ft 463 kts 29°
2026-05-04 15:56 55.47460 -111.16942 35181 ft 463 kts 29°
2026-05-04 15:57 55.52735 -111.10400 35179 ft 463 kts 29°
2026-05-04 15:57 55.58012 -111.03834 35176 ft 465 kts 30°
2026-05-04 15:58 55.63290 -110.97241 35178 ft 465 kts 30°
2026-05-04 15:58 55.68545 -110.90658 35177 ft 465 kts 30°
2026-05-04 15:59 55.73823 -110.84022 35179 ft 465 kts 30°
2026-05-04 15:59 55.79104 -110.77362 35179 ft 466 kts 30°
2026-05-04 16:00 55.84383 -110.70680 35225 ft 466 kts 30°
2026-05-04 16:00 55.89685 -110.63948 35178 ft 470 kts 31°
2026-05-04 16:01 55.94960 -110.57224 35178 ft 469 kts 31°
2026-05-04 16:01 56.00294 -110.50403 35178 ft 468 kts 31°
2026-05-04 16:02 56.05581 -110.43618 35175 ft 467 kts 31°
2026-05-04 16:03 56.13453 -110.33475 35203 ft 466 kts 31°
2026-05-04 16:03 56.18753 -110.26618 35177 ft 473 kts 32°
2026-05-04 16:04 56.24089 -110.19683 35179 ft 473 kts 32°
2026-05-04 16:04 56.32027 -110.09330 35175 ft 471 kts 32°
2026-05-04 16:05 56.37318 -110.02397 35167 ft 470 kts 32°
2026-05-04 16:06 56.45261 -109.91946 35166 ft 473 kts 33°
2026-05-04 16:07 56.55932 -109.77814 35169 ft 475 kts 33°
2026-05-04 16:08 56.66554 -109.63647 35156 ft 475 kts 33°
2026-05-04 16:09 56.79869 -109.45747 35160 ft 477 kts 33°
2026-05-04 16:10 56.90496 -109.31343 35161 ft 477 kts 33°
2026-05-04 16:11 57.01132 -109.16821 35174 ft 477 kts 34°
2026-05-04 16:12 57.17106 -108.94811 35168 ft 477 kts 34°
2026-05-04 16:13 57.27647 -108.80152 35160 ft 476 kts 34°
2026-05-04 16:14 57.38200 -108.65368 35174 ft 475 kts 34°
2026-05-04 16:16 57.51330 -108.46822 35184 ft 477 kts 34°
2026-05-04 16:17 57.64545 -108.27980 35172 ft 476 kts 35°
2026-05-04 16:18 57.75022 -108.12915 35176 ft 475 kts 35°
2026-05-04 16:19 57.88072 -107.93992 35172 ft 474 kts 35°
2026-05-04 16:20 58.01039 -107.75012 35185 ft 475 kts 35°
2026-05-04 16:22 58.14094 -107.55719 35185 ft 475 kts 36°
2026-05-04 16:23 58.29671 -107.32459 35181 ft 475 kts 36°
2026-05-04 16:25 58.45188 -107.09018 35187 ft 475 kts 36°
2026-05-04 16:26 58.63315 -106.81288 35198 ft 477 kts 37°
2026-05-04 16:28 58.76189 -106.61360 35201 ft 476 kts 37°
2026-05-04 16:29 58.94194 -106.33161 35179 ft 479 kts 37°
2026-05-04 16:31 59.07087 -106.12729 35194 ft 478 kts 38°
2026-05-04 16:32 59.22423 -105.88152 35117 ft 476 kts 38°
2026-05-04 16:33 59.31427 -105.69142 35130 ft 480 kts 49°
2026-05-04 16:34 59.37772 -105.54006 35141 ft 478 kts 49°
2026-05-04 16:35 59.50336 -105.23711 35159 ft 478 kts 49°
2026-05-04 16:36 59.56615 -105.08434 35153 ft 479 kts 50°
2026-05-04 16:37 59.62834 -104.93196 35148 ft 477 kts 50°
2026-05-04 16:38 59.71121 -104.72739 35149 ft 477 kts 50°
2026-05-04 16:39 59.81450 -104.46985 35159 ft 476 kts 50°
2026-05-04 16:40 59.89633 -104.26380 35157 ft 478 kts 51°
2026-05-04 16:41 59.99943 -104.00310 35149 ft 477 kts 45°
2026-05-04 16:43 60.12042 -103.77918 35139 ft 476 kts 42°
2026-05-04 16:43 60.19342 -103.64417 35142 ft 476 kts 42°
2026-05-04 16:45 60.33849 -103.37322 35127 ft 471 kts 42°
2026-05-04 16:46 60.45862 -103.14627 35133 ft 474 kts 43°
2026-05-04 16:47 60.55427 -102.96381 35126 ft 473 kts 43°
2026-05-04 16:48 60.65001 -102.77963 35125 ft 473 kts 43°
2026-05-04 16:49 60.74508 -102.59517 35109 ft 473 kts 43°
2026-05-04 16:50 60.84025 -102.40890 35126 ft 473 kts 43°
2026-05-04 16:51 60.91103 -102.26931 35128 ft 472 kts 44°
2026-05-04 16:52 61.00553 -102.08155 35119 ft 472 kts 44°
2026-05-04 16:53 61.07635 -101.93976 35118 ft 473 kts 44°
2026-05-04 16:54 61.17008 -101.75063 35430 ft 469 kts 44°
2026-05-04 16:55 61.26330 -101.56090 36083 ft 471 kts 44°
2026-05-04 16:55 61.30994 -101.46535 36411 ft 471 kts 44°
2026-05-04 16:56 61.35663 -101.36927 36689 ft 472 kts 44°
2026-05-04 16:56 61.42645 -101.22480 36888 ft 477 kts 45°
2026-05-04 16:57 61.44988 -101.17607 37103 ft 475 kts 45°
2026-05-04 16:57 61.49680 -101.07821 37114 ft 476 kts 45°
2026-05-04 16:58 61.59021 -100.88207 37105 ft 475 kts 45°
2026-05-04 17:00 61.72916 -100.58699 37105 ft 475 kts 45°
2026-05-04 17:01 61.84501 -100.33787 37092 ft 474 kts 46°
2026-05-04 17:02 61.93716 -100.13766 37093 ft 474 kts 46°
2026-05-04 17:03 62.00535 -99.98592 37098 ft 474 kts 53°
2026-05-04 17:03 62.06656 -99.82034 37093 ft 474 kts 52°
2026-05-04 17:04 62.14781 -99.59831 37091 ft 475 kts 52°
2026-05-04 17:05 62.22891 -99.37472 37087 ft 476 kts 52°
2026-05-04 17:06 62.28933 -99.20672 37071 ft 476 kts 52°
2026-05-04 17:07 62.33644 -99.07489 37076 ft 476 kts 52°
2026-05-04 17:07 62.39004 -98.92398 37077 ft 476 kts 53°
2026-05-04 17:08 62.45017 -98.75347 37071 ft 475 kts 53°
2026-05-04 17:09 62.48979 -98.64040 37075 ft 475 kts 53°
2026-05-04 17:09 62.52959 -98.52626 37064 ft 475 kts 53°
2026-05-04 17:10 62.62865 -98.23968 37052 ft 476 kts 53°
2026-05-04 17:11 62.66815 -98.12441 37063 ft 475 kts 54°
2026-05-04 17:12 62.72733 -97.95057 37056 ft 477 kts 54°
2026-05-04 17:13 62.82541 -97.65954 37053 ft 476 kts 54°
2026-05-04 17:14 62.90360 -97.42484 37041 ft 477 kts 54°
2026-05-04 17:15 62.96193 -97.24813 37037 ft 476 kts 54°
2026-05-04 17:16 63.03911 -97.01221 37040 ft 476 kts 55°
2026-05-04 17:17 63.11604 -96.77459 37039 ft 476 kts 55°
2026-05-04 17:18 63.19248 -96.53600 37026 ft 477 kts 55°
2026-05-04 17:19 63.26865 -96.29574 37033 ft 476 kts 56°
2026-05-04 17:20 63.33804 -96.07460 37028 ft 478 kts 56°
2026-05-04 17:20 63.40082 -95.87266 37040 ft 477 kts 56°
2026-05-04 17:21 63.46961 -95.64934 37029 ft 477 kts 56°
2026-05-04 17:22 63.50706 -95.52680 37028 ft 477 kts 56°
2026-05-04 17:23 63.58162 -95.28087 37030 ft 476 kts 56°
2026-05-04 17:24 63.63710 -95.09610 37020 ft 475 kts 56°
2026-05-04 17:25 63.71052 -94.84926 37016 ft 477 kts 57°
2026-05-04 17:26 63.78403 -94.59936 37022 ft 477 kts 57°
2026-05-04 17:27 63.87494 -94.28647 37020 ft 477 kts 57°
2026-05-04 17:28 63.94750 -94.03355 37023 ft 477 kts 57°
2026-05-04 17:29 64.05507 -93.65327 37003 ft 473 kts 58°
2026-05-04 17:31 64.14340 -93.33615 37002 ft 474 kts 58°
2026-05-04 17:32 64.23117 -93.01648 37016 ft 473 kts 58°
2026-05-04 17:33 64.30060 -92.76030 37005 ft 474 kts 58°
2026-05-04 17:34 64.36996 -92.50147 37002 ft 474 kts 59°
2026-05-04 17:35 64.45565 -92.17749 36996 ft 472 kts 59°
2026-05-04 17:36 64.48973 -92.04727 37007 ft 472 kts 60°
2026-05-04 17:36 64.52367 -91.91688 36999 ft 471 kts 60°
2026-05-04 17:37 64.55740 -91.78644 36998 ft 471 kts 60°
2026-05-04 17:37 64.59108 -91.65557 36999 ft 471 kts 60°
2026-05-04 17:38 64.62457 -91.52452 37011 ft 470 kts 60°
2026-05-04 17:38 64.65789 -91.39347 37007 ft 470 kts 60°
2026-05-04 17:39 64.70742 -91.19712 37001 ft 469 kts 60°
2026-05-04 17:39 64.74041 -91.06540 37015 ft 469 kts 61°
2026-05-04 17:40 64.77320 -90.93360 37001 ft 468 kts 60°
2026-05-04 17:40 64.80589 -90.80152 37006 ft 469 kts 61°
2026-05-04 17:41 64.83846 -90.66907 37001 ft 468 kts 61°
2026-05-04 17:41 64.87063 -90.53749 36996 ft 466 kts 61°
2026-05-04 17:42 64.90303 -90.40410 36990 ft 466 kts 62°
2026-05-04 17:42 64.93484 -90.27245 36994 ft 465 kts 62°
2026-05-04 17:43 64.96670 -90.13968 36988 ft 465 kts 62°
2026-05-04 17:43 64.99802 -90.00590 37005 ft 465 kts 69°
2026-05-04 17:44 65.01915 -89.86163 37011 ft 465 kts 72°
2026-05-04 17:44 65.03886 -89.71563 37015 ft 467 kts 72°
2026-05-04 17:45 65.05876 -89.56902 37020 ft 468 kts 73°
2026-05-04 17:45 65.07829 -89.42278 37017 ft 468 kts 73°
2026-05-04 17:46 65.09782 -89.27569 37016 ft 468 kts 73°
2026-05-04 17:46 65.11724 -89.12811 37039 ft 469 kts 73°
2026-05-04 17:47 65.13651 -88.98023 37030 ft 468 kts 73°
2026-05-04 17:47 65.15552 -88.83305 37028 ft 469 kts 73°
2026-05-04 17:48 65.17452 -88.68464 37034 ft 469 kts 73°
2026-05-04 17:48 65.19334 -88.53628 37026 ft 468 kts 73°
2026-05-04 17:49 65.21200 -88.38774 37026 ft 468 kts 73°
2026-05-04 17:49 65.23049 -88.23928 37023 ft 466 kts 73°
2026-05-04 17:50 65.24883 -88.09064 37023 ft 467 kts 74°
2026-05-04 17:50 65.26701 -87.94189 37017 ft 467 kts 74°
2026-05-04 17:51 65.28491 -87.79406 37003 ft 467 kts 74°
2026-05-04 17:51 65.30283 -87.64453 37005 ft 468 kts 75°
2026-05-04 17:52 65.32063 -87.49461 37011 ft 469 kts 75°
2026-05-04 17:52 65.33823 -87.34501 37020 ft 465 kts 75°
2026-05-04 17:53 65.35556 -87.19617 37015 ft 464 kts 75°
2026-05-04 17:53 65.37263 -87.04816 37010 ft 463 kts 75°
2026-05-04 17:54 65.38967 -86.89891 37004 ft 464 kts 75°
2026-05-04 17:54 65.40657 -86.74941 37008 ft 464 kts 75°
2026-05-04 17:55 65.42332 -86.59978 37000 ft 465 kts 75°
2026-05-04 17:55 65.44000 -86.44922 37001 ft 466 kts 75°
2026-05-04 17:56 65.45644 -86.29934 37002 ft 466 kts 76°
2026-05-04 17:56 65.47283 -86.14823 37000 ft 468 kts 76°
2026-05-04 17:57 65.48912 -85.99660 36999 ft 468 kts 76°
2026-05-04 17:57 65.50523 -85.84498 36999 ft 468 kts 76°
2026-05-04 17:58 65.52124 -85.69274 37009 ft 469 kts 77°
2026-05-04 17:58 65.53701 -85.54117 36998 ft 469 kts 77°
2026-05-04 17:59 65.55276 -85.38800 37006 ft 470 kts 77°
2026-05-04 18:00 65.57616 -85.15742 37005 ft 471 kts 77°
2026-05-04 18:00 65.59160 -85.00313 37009 ft 473 kts 77°
2026-05-04 18:01 65.60680 -84.84938 36994 ft 472 kts 77°
2026-05-04 18:01 65.62192 -84.69485 37000 ft 472 kts 77°
2026-05-04 18:02 65.64432 -84.46237 37016 ft 472 kts 78°
2026-05-04 18:02 65.65906 -84.30720 37013 ft 472 kts 78°
2026-05-04 18:03 65.67353 -84.15307 37010 ft 473 kts 78°
2026-05-04 18:03 65.68797 -83.99736 37012 ft 474 kts 78°
2026-05-04 18:04 65.70226 -83.84134 37303 ft 471 kts 78°
2026-05-04 18:04 65.71637 -83.68537 37582 ft 473 kts 79°
2026-05-04 18:05 65.72330 -83.60806 37630 ft 476 kts 79°
2026-05-04 18:05 65.73028 -83.52971 37857 ft 474 kts 79°
2026-05-04 18:05 65.73724 -83.45115 37937 ft 477 kts 79°
2026-05-04 18:05 65.74418 -83.37238 38091 ft 477 kts 79°
2026-05-04 18:06 65.75793 -83.21440 38325 ft 479 kts 79°
2026-05-04 18:06 65.76479 -83.13513 38469 ft 479 kts 79°
2026-05-04 18:06 65.77162 -83.05541 38477 ft 482 kts 80°
2026-05-04 18:07 65.77841 -82.97550 38687 ft 480 kts 79°
2026-05-04 18:07 65.78508 -82.89676 38778 ft 481 kts 80°
2026-05-04 18:07 65.79178 -82.81706 38888 ft 481 kts 80°
2026-05-04 18:07 65.79846 -82.73704 39000 ft 481 kts 80°
2026-05-04 18:08 65.81172 -82.57658 38985 ft 482 kts 80°
2026-05-04 18:08 65.82479 -82.41631 38990 ft 482 kts 80°
2026-05-04 18:09 65.85040 -82.09497 38994 ft 484 kts 81°
2026-05-04 18:10 65.86302 -81.93363 38991 ft 484 kts 81°
2026-05-04 18:10 65.87536 -81.77326 38986 ft 483 kts 82°
2026-05-04 18:11 65.88763 -81.61170 38988 ft 483 kts 82°
2026-05-04 18:11 65.89972 -81.44986 38995 ft 483 kts 82°
2026-05-04 18:12 65.91144 -81.29204 38988 ft 483 kts 82°
2026-05-04 18:12 65.92302 -81.13037 38993 ft 486 kts 82°
2026-05-04 18:13 65.93474 -80.96717 38996 ft 486 kts 82°
2026-05-04 18:14 65.95187 -80.72195 39000 ft 486 kts 82°
2026-05-04 18:14 65.96310 -80.55850 39004 ft 486 kts 83°
2026-05-04 18:15 65.98496 -80.23180 38999 ft 487 kts 83°
2026-05-04 18:16 65.99568 -80.06744 39003 ft 487 kts 83°
2026-05-04 18:16 66.01277 -79.90633 39011 ft 490 kts 74°
2026-05-04 18:17 66.04520 -79.66779 39026 ft 490 kts 74°
2026-05-04 18:18 66.07697 -79.42953 39021 ft 491 kts 74°
2026-05-04 18:18 66.09810 -79.26939 39022 ft 491 kts 75°
2026-05-04 18:19 66.12952 -79.02868 39036 ft 491 kts 75°
2026-05-04 18:19 66.15021 -78.86796 39030 ft 491 kts 75°
2026-05-04 18:20 66.17076 -78.70694 39017 ft 491 kts 75°
2026-05-04 18:20 66.19100 -78.54675 39020 ft 492 kts 76°
2026-05-04 18:21 66.21123 -78.38501 39024 ft 491 kts 75°
2026-05-04 18:21 66.23128 -78.22331 39027 ft 491 kts 76°
2026-05-04 18:22 66.25116 -78.06114 39024 ft 492 kts 76°
2026-05-04 18:22 66.27087 -77.89893 39026 ft 491 kts 76°
2026-05-04 18:23 66.29024 -77.73771 39039 ft 491 kts 76°
2026-05-04 18:23 66.30962 -77.57485 39042 ft 491 kts 76°
2026-05-04 18:24 66.32880 -77.41186 39053 ft 491 kts 77°
2026-05-04 18:24 66.34783 -77.24861 39050 ft 491 kts 77°
2026-05-04 18:25 66.36666 -77.08523 39052 ft 491 kts 77°
2026-05-04 18:25 66.38492 -76.92591 39056 ft 491 kts 77°
2026-05-04 18:26 66.40324 -76.76253 39050 ft 493 kts 77°
2026-05-04 18:26 66.42174 -76.59753 39055 ft 493 kts 77°
2026-05-04 18:27 66.43994 -76.43244 39066 ft 492 kts 78°
2026-05-04 18:27 66.45799 -76.26727 39071 ft 493 kts 77°
2026-05-04 18:28 66.47585 -76.10191 39072 ft 493 kts 78°
2026-05-04 18:28 66.49355 -75.93622 39074 ft 493 kts 78°
2026-05-04 18:29 66.51097 -75.77136 39076 ft 493 kts 78°
2026-05-04 18:29 66.52833 -75.60499 39082 ft 494 kts 78°
2026-05-04 18:30 66.55412 -75.35448 39085 ft 494 kts 78°
2026-05-04 18:31 66.57095 -75.18840 39086 ft 494 kts 78°
2026-05-04 18:31 66.58783 -75.01982 39096 ft 494 kts 79°
2026-05-04 18:32 66.60443 -74.85220 39096 ft 494 kts 79°
2026-05-04 18:32 66.62085 -74.68430 39099 ft 495 kts 79°
2026-05-04 18:33 66.63715 -74.51562 39110 ft 496 kts 79°
2026-05-04 18:33 66.65329 -74.34643 39120 ft 495 kts 79°
2026-05-04 18:34 66.66906 -74.17898 39124 ft 494 kts 79°
2026-05-04 18:34 66.68475 -74.01039 39121 ft 493 kts 80°
2026-05-04 18:35 66.70022 -73.84187 39115 ft 492 kts 80°
2026-05-04 18:35 66.71548 -73.67346 39140 ft 494 kts 80°
2026-05-04 18:36 66.73072 -73.50320 39150 ft 498 kts 80°
2026-05-04 18:36 66.74579 -73.33248 39161 ft 497 kts 80°
2026-05-04 18:37 66.76057 -73.16277 39162 ft 496 kts 81°
2026-05-04 18:37 66.77522 -72.99224 39175 ft 495 kts 81°
2026-05-04 18:38 66.78967 -72.82171 39174 ft 495 kts 81°
2026-05-04 18:38 66.80393 -72.65096 39164 ft 496 kts 81°
2026-05-04 18:39 66.81805 -72.47966 39172 ft 496 kts 81°
2026-05-04 18:39 66.83187 -72.30950 39183 ft 495 kts 81°
2026-05-04 18:40 66.84559 -72.13808 39184 ft 494 kts 81°
2026-05-04 18:40 66.85912 -71.96661 39188 ft 496 kts 82°
2026-05-04 18:41 66.87248 -71.79449 39197 ft 497 kts 82°
2026-05-04 18:41 66.88566 -71.62232 39210 ft 501 kts 82°
2026-05-04 18:42 66.89881 -71.44793 39210 ft 501 kts 82°
2026-05-04 18:42 66.91171 -71.27395 39207 ft 499 kts 82°
2026-05-04 18:43 66.92438 -71.10049 39201 ft 497 kts 82°
2026-05-04 18:43 66.93684 -70.92699 39200 ft 498 kts 82°
2026-05-04 18:44 66.94906 -70.75407 39204 ft 499 kts 82°
2026-05-04 18:44 66.96120 -70.57946 39209 ft 501 kts 82°
2026-05-04 18:45 66.97318 -70.40417 39213 ft 501 kts 83°
2026-05-04 18:45 66.98496 -70.22887 39211 ft 500 kts 83°
2026-05-04 18:46 66.99643 -70.05508 39210 ft 500 kts 83°
2026-05-04 18:46 67.00446 -69.96854 39249 ft 501 kts 72°
2026-05-04 18:46 67.01611 -69.88426 39215 ft 503 kts 73°
2026-05-04 18:47 67.03978 -69.71545 39217 ft 504 kts 73°
2026-05-04 18:47 67.06308 -69.54537 39226 ft 508 kts 73°
2026-05-04 18:48 67.08644 -69.37448 39231 ft 507 kts 73°
2026-05-04 18:48 67.10934 -69.20463 39230 ft 506 kts 73°
2026-05-04 18:49 67.13222 -69.03358 39228 ft 506 kts 73°
2026-05-04 18:49 67.15488 -68.86233 39224 ft 506 kts 74°
2026-05-04 18:50 67.17736 -68.69077 39221 ft 506 kts 74°
2026-05-04 18:50 67.19970 -68.51861 39215 ft 508 kts 74°
2026-05-04 18:51 67.22179 -68.34647 39212 ft 510 kts 74°
2026-05-04 18:51 67.24388 -68.17278 39212 ft 508 kts 75°
2026-05-04 18:52 67.26568 -67.99946 39213 ft 507 kts 75°
2026-05-04 18:52 67.28727 -67.82607 39193 ft 506 kts 75°
2026-05-04 18:53 67.30863 -67.65263 39197 ft 506 kts 75°
2026-05-04 18:53 67.32986 -67.47841 39216 ft 509 kts 75°
2026-05-04 18:54 67.35092 -67.30382 39205 ft 512 kts 75°
2026-05-04 18:54 67.37198 -67.12726 39210 ft 512 kts 75°
2026-05-04 18:55 67.39281 -66.95077 39244 ft 510 kts 75°
2026-05-04 18:55 67.42341 -66.68781 39239 ft 508 kts 76°
2026-05-04 18:56 67.44363 -66.51162 39301 ft 508 kts 76°
2026-05-04 18:56 67.46369 -66.33479 39302 ft 509 kts 76°
2026-05-04 18:57 67.48365 -66.15692 39306 ft 514 kts 76°
2026-05-04 18:57 67.50344 -65.97857 39389 ft 515 kts 76°
2026-05-04 18:58 67.52312 -65.79902 39383 ft 513 kts 76°
2026-05-04 18:58 67.54256 -65.61960 39379 ft 512 kts 76°
2026-05-04 18:59 67.56176 -65.44018 39434 ft 512 kts 77°
2026-05-04 18:59 67.57759 -65.29075 39432 ft 513 kts 77°
2026-05-04 19:00 67.59645 -65.11066 39431 ft 513 kts 77°
2026-05-04 19:00 67.61818 -64.90032 39466 ft 516 kts 77°
2026-05-04 19:01 67.63680 -64.71775 39469 ft 518 kts 77°
2026-05-04 19:01 67.65521 -64.53486 39482 ft 518 kts 77°
2026-05-04 19:02 67.67035 -64.38271 39484 ft 517 kts 77°
2026-05-04 19:02 67.68837 -64.19952 39482 ft 517 kts 77°
2026-05-04 19:03 67.70613 -64.01655 39485 ft 516 kts 78°
2026-05-04 19:03 67.72369 -63.83321 39475 ft 516 kts 78°
2026-05-04 19:04 67.74108 -63.64927 39486 ft 519 kts 78°
2026-05-04 19:04 67.75826 -63.46506 39495 ft 522 kts 78°
2026-05-04 19:05 67.77540 -63.27874 39493 ft 521 kts 78°
2026-05-04 19:05 67.79227 -63.09279 39485 ft 520 kts 78°
2026-05-04 19:06 67.80888 -62.90718 39483 ft 518 kts 78°
2026-05-04 19:06 67.82525 -62.72157 39454 ft 518 kts 78°
2026-05-04 19:07 67.84133 -62.53661 39467 ft 521 kts 79°
2026-05-04 19:07 67.85742 -62.34890 39483 ft 522 kts 79°
2026-05-04 19:08 67.87331 -62.16078 39474 ft 523 kts 78°
2026-05-04 19:08 67.88902 -61.97185 39476 ft 525 kts 79°
2026-05-04 19:09 67.90452 -61.78268 39470 ft 524 kts 79°
2026-05-04 19:09 67.91979 -61.59337 39458 ft 524 kts 79°
2026-05-04 19:10 67.93481 -61.40413 39453 ft 524 kts 79°
2026-05-04 19:10 67.94969 -61.21378 39451 ft 527 kts 79°
2026-05-04 19:11 67.96429 -61.02395 39458 ft 526 kts 79°
2026-05-04 19:11 67.97871 -60.83327 39451 ft 525 kts 79°
2026-05-04 19:12 67.98891 -60.54288 39446 ft 527 kts 88°
2026-05-04 19:13 67.99312 -60.34761 39449 ft 527 kts 88°
2026-05-04 19:13 67.99711 -60.15242 39434 ft 529 kts 88°
2026-05-04 19:14 68.00140 -59.95782 39449 ft 529 kts 85°
2026-05-04 19:14 68.00706 -59.76230 39429 ft 529 kts 87°
2026-05-04 19:15 68.01260 -59.56668 39437 ft 529 kts 86°
2026-05-04 19:15 68.01798 -59.37076 39426 ft 529 kts 87°
2026-05-04 19:16 68.02298 -59.17460 39436 ft 530 kts 87°
2026-05-04 19:16 68.02789 -58.97915 39427 ft 531 kts 87°
2026-05-04 19:17 68.03247 -58.78240 39418 ft 531 kts 87°
2026-05-04 19:17 68.03689 -58.58593 39415 ft 529 kts 88°
2026-05-04 19:18 68.04101 -58.38993 39399 ft 528 kts 88°
2026-05-04 19:18 68.04493 -58.19412 39396 ft 528 kts 88°
2026-05-04 19:19 68.04860 -57.99811 39384 ft 528 kts 88°
2026-05-04 19:19 68.05206 -57.80136 39395 ft 531 kts 88°
2026-05-04 19:20 68.05526 -57.60545 39405 ft 531 kts 88°
2026-05-04 19:20 68.05826 -57.40839 39385 ft 530 kts 89°
2026-05-04 19:21 68.06101 -57.21176 39381 ft 528 kts 89°
2026-05-04 19:21 68.06351 -57.01556 39370 ft 527 kts 89°
2026-05-04 19:22 68.06577 -56.82078 39384 ft 528 kts 89°
2026-05-04 19:22 68.06783 -56.62361 39368 ft 531 kts 89°
2026-05-04 19:23 68.06966 -56.42480 39378 ft 532 kts 89°
2026-05-04 19:23 68.07125 -56.22699 39369 ft 531 kts 90°
2026-05-04 19:24 68.07259 -56.02958 39359 ft 531 kts 90°
2026-05-04 19:24 68.07370 -55.83199 39360 ft 532 kts 89°
2026-05-04 19:25 68.07458 -55.63529 39345 ft 533 kts 90°
2026-05-04 19:25 68.07522 -55.43670 39348 ft 535 kts 90°
2026-05-04 19:26 68.07563 -55.23759 39346 ft 535 kts 90°
2026-05-04 19:26 68.07579 -55.03863 39341 ft 534 kts 90°
2026-05-04 19:27 68.07572 -54.84028 39339 ft 532 kts 90°
2026-05-04 19:27 68.07541 -54.64379 39331 ft 531 kts 90°
2026-05-04 19:28 68.07487 -54.44626 39342 ft 533 kts 91°
2026-05-04 19:28 68.07409 -54.24738 39343 ft 535 kts 91°
2026-05-04 19:29 68.07306 -54.04814 39338 ft 536 kts 91°
2026-05-04 19:29 68.07179 -53.84895 39332 ft 535 kts 91°
2026-05-04 19:30 68.07030 -53.65134 39329 ft 534 kts 91°
2026-05-04 19:30 68.06856 -53.45270 39328 ft 534 kts 91°
2026-05-04 19:31 68.06658 -53.25408 39326 ft 535 kts 91°
2026-05-04 19:31 68.06436 -53.05496 39329 ft 536 kts 92°
2026-05-04 19:32 68.06191 -52.85688 39315 ft 536 kts 92°
2026-05-04 19:32 68.05921 -52.65795 39324 ft 535 kts 92°
2026-05-04 19:33 68.05626 -52.45895 39316 ft 535 kts 92°
2026-05-04 19:33 68.05310 -52.26049 39313 ft 534 kts 92°
2026-05-04 19:34 68.04969 -52.06220 39315 ft 536 kts 92°
2026-05-04 19:34 68.04604 -51.86404 39311 ft 538 kts 92°
2026-05-04 19:35 68.04212 -51.66431 39315 ft 538 kts 92°
2026-05-04 19:35 68.03797 -51.46478 39309 ft 538 kts 93°
2026-05-04 19:36 68.03357 -51.26527 39310 ft 537 kts 93°
2026-05-04 19:36 68.02898 -51.06768 39289 ft 536 kts 93°
2026-05-04 19:37 68.02411 -50.86880 39298 ft 537 kts 93°
2026-05-04 19:37 68.01902 -50.67022 39302 ft 536 kts 93°
2026-05-04 19:38 68.01368 -50.47160 39304 ft 536 kts 94°
2026-05-04 19:38 68.00815 -50.27501 39302 ft 535 kts 94°
2026-05-04 19:39 68.00234 -50.07679 39307 ft 537 kts 94°
2026-05-04 19:39 67.99227 -49.87965 39332 ft 538 kts 100°
2026-05-04 19:40 67.97869 -49.68359 39345 ft 539 kts 100°
2026-05-04 19:40 67.96543 -49.48712 39348 ft 539 kts 100°
2026-05-04 19:41 67.95167 -49.29231 39358 ft 539 kts 100°
2026-05-04 19:41 67.93780 -49.09634 39379 ft 539 kts 101°
2026-05-04 19:42 67.92362 -48.90114 39380 ft 537 kts 101°
2026-05-04 19:42 67.90929 -48.70656 39380 ft 537 kts 101°
2026-05-04 19:43 67.89469 -48.51208 39379 ft 538 kts 101°
2026-05-04 19:43 67.87994 -48.31866 39398 ft 538 kts 101°
2026-05-04 19:44 67.86486 -48.12431 39399 ft 539 kts 101°
2026-05-04 19:44 67.84959 -47.93057 39376 ft 539 kts 102°
2026-05-04 19:45 67.83402 -47.73628 39381 ft 539 kts 102°
2026-05-04 19:45 67.81822 -47.54224 39335 ft 539 kts 102°
2026-05-04 19:46 67.80229 -47.34972 39335 ft 539 kts 102°
2026-05-04 19:46 67.78604 -47.15630 39315 ft 539 kts 102°
2026-05-04 19:47 67.76957 -46.96323 39310 ft 538 kts 103°
2026-05-04 19:47 67.75291 -46.77093 39290 ft 537 kts 103°
2026-05-04 19:48 67.73604 -46.57896 39296 ft 538 kts 103°
2026-05-04 19:48 67.71902 -46.38819 39300 ft 540 kts 103°
2026-05-04 19:49 67.70158 -46.19558 39305 ft 541 kts 103°
2026-05-04 19:49 67.68390 -46.00306 39308 ft 541 kts 103°
2026-05-04 19:50 67.66605 -45.81142 39306 ft 539 kts 104°
2026-05-04 19:50 67.64812 -45.62156 39295 ft 538 kts 104°
2026-05-04 19:51 67.62991 -45.43145 39324 ft 537 kts 104°
2026-05-04 19:51 67.61142 -45.24101 39314 ft 539 kts 104°
2026-05-04 19:52 67.59268 -45.05063 39314 ft 540 kts 104°
2026-05-04 19:52 67.57369 -44.86018 39317 ft 540 kts 105°
2026-05-04 19:53 67.55445 -44.66983 39314 ft 541 kts 105°
2026-05-04 19:53 67.53514 -44.48130 39315 ft 540 kts 105°
2026-05-04 19:54 67.51549 -44.29191 39307 ft 539 kts 105°
2026-05-04 19:54 67.49566 -44.10323 39308 ft 538 kts 105°
2026-05-04 19:55 67.47565 -43.91519 39316 ft 537 kts 105°
2026-05-04 19:55 67.45545 -43.72778 39316 ft 538 kts 106°
2026-05-04 19:56 67.43500 -43.54033 39330 ft 538 kts 106°
2026-05-04 19:56 67.41445 -43.35436 39319 ft 538 kts 106°
2026-05-04 19:57 67.39357 -43.16751 39336 ft 538 kts 106°
2026-05-04 19:57 67.37245 -42.98088 39322 ft 538 kts 107°
2026-05-04 19:58 67.35113 -42.79469 39322 ft 538 kts 107°
2026-05-04 19:58 67.32960 -42.60894 39299 ft 540 kts 107°
2026-05-04 19:59 67.30787 -42.42357 39317 ft 542 kts 107°
2026-05-04 19:59 67.28575 -42.23706 39322 ft 542 kts 107°
2026-05-04 20:00 67.26341 -42.05088 39323 ft 542 kts 108°
2026-05-04 20:00 67.24087 -41.86515 39404 ft 542 kts 108°
2026-05-04 20:01 67.21821 -41.68058 39356 ft 544 kts 107°
2026-05-04 20:01 67.19508 -41.49428 39368 ft 547 kts 108°
2026-05-04 20:02 67.17166 -41.30775 39382 ft 546 kts 108°
2026-05-04 20:02 67.14808 -41.12201 39403 ft 545 kts 108°
2026-05-04 20:03 67.12434 -40.93702 39401 ft 544 kts 108°
2026-05-04 20:03 67.10042 -40.75274 39397 ft 543 kts 108°
2026-05-04 20:04 67.07651 -40.57045 39403 ft 544 kts 108°
2026-05-04 20:04 67.05211 -40.38641 39437 ft 546 kts 108°
2026-05-04 20:05 67.02741 -40.20210 39447 ft 547 kts 109°
2026-05-04 20:05 67.00231 -40.01991 39451 ft 545 kts 115°
2026-05-04 20:06 66.96495 -39.85194 39458 ft 545 kts 123°
2026-05-04 20:06 66.92530 -39.68772 39451 ft 541 kts 122°
2026-05-04 20:07 66.88606 -39.52438 39467 ft 541 kts 123°
2026-05-04 20:07 66.84633 -39.36167 39470 ft 541 kts 123°
2026-05-04 20:08 66.80688 -39.20037 39464 ft 542 kts 123°
2026-05-04 20:08 66.76679 -39.03824 39448 ft 543 kts 123°
2026-05-04 20:09 66.72701 -38.87821 39441 ft 538 kts 123°
2026-05-04 20:09 66.68719 -38.71927 39440 ft 536 kts 124°
2026-05-04 20:10 66.64695 -38.56003 39442 ft 540 kts 123°
2026-05-04 20:10 66.60651 -38.40074 39439 ft 540 kts 124°
2026-05-04 20:11 66.56579 -38.24190 39438 ft 540 kts 124°
2026-05-04 20:11 66.52495 -38.08347 39430 ft 540 kts 124°
2026-05-04 20:12 66.48430 -37.92706 39433 ft 539 kts 124°
2026-05-04 20:12 66.44324 -37.77008 39423 ft 538 kts 124°
2026-05-04 20:13 66.40207 -37.61392 39429 ft 539 kts 124°
2026-05-04 20:13 66.36072 -37.45807 39409 ft 538 kts 124°
2026-05-04 20:14 66.31940 -37.30347 39415 ft 536 kts 125°
2026-05-04 20:14 66.27940 -37.15427 39410 ft 532 kts 124°
2026-05-04 20:15 66.23788 -37.00207 39434 ft 535 kts 125°
2026-05-04 20:15 66.19611 -36.84829 39431 ft 540 kts 125°
2026-05-04 20:16 66.15399 -36.69522 39423 ft 536 kts 126°
2026-05-04 20:16 66.11203 -36.54348 39435 ft 535 kts 126°
2026-05-04 20:17 66.06995 -36.39238 39434 ft 535 kts 126°
2026-05-04 20:17 66.02792 -36.24255 39435 ft 536 kts 126°
2026-05-04 20:18 65.98542 -36.09197 39424 ft 537 kts 126°
2026-05-04 20:18 65.94265 -35.94154 39429 ft 538 kts 127°
2026-05-04 20:19 65.89978 -35.79171 39425 ft 537 kts 127°
2026-05-04 20:19 65.85676 -35.64242 39424 ft 537 kts 127°
2026-05-04 20:20 65.81390 -35.49462 39421 ft 537 kts 127°
2026-05-04 20:20 65.77065 -35.34652 39419 ft 536 kts 127°
2026-05-04 20:21 65.72720 -35.19871 39440 ft 539 kts 127°
2026-05-04 20:21 65.66159 -34.97734 39425 ft 537 kts 127°
2026-05-04 20:22 65.61815 -34.83198 39410 ft 535 kts 128°
2026-05-04 20:22 65.57438 -34.68648 39393 ft 535 kts 128°
2026-05-04 20:23 65.53028 -34.54085 39409 ft 539 kts 128°
2026-05-04 20:23 65.48584 -34.39501 39405 ft 540 kts 128°
2026-05-04 20:24 65.44131 -34.24986 39407 ft 539 kts 128°
2026-05-04 20:24 65.39661 -34.10508 39396 ft 539 kts 128°
2026-05-04 20:25 65.35183 -33.96101 39388 ft 539 kts 128°
2026-05-04 20:25 65.30689 -33.81733 39379 ft 539 kts 128°
2026-05-04 20:26 65.26203 -33.67485 39377 ft 540 kts 128°
2026-05-04 20:26 65.21673 -33.53188 39384 ft 541 kts 128°
2026-05-04 20:27 65.17129 -33.38939 39373 ft 540 kts 128°
2026-05-04 20:27 65.12583 -33.24773 39370 ft 537 kts 129°
2026-05-04 20:28 65.08048 -33.10733 39367 ft 536 kts 129°
2026-05-04 20:28 65.03536 -32.96849 39350 ft 536 kts 129°
2026-05-04 20:29 64.98966 -32.82877 39362 ft 538 kts 129°
2026-05-04 20:29 64.94364 -32.68892 39344 ft 540 kts 129°
2026-05-04 20:30 64.89767 -32.55012 39361 ft 535 kts 129°
2026-05-04 20:30 64.85175 -32.41232 39352 ft 534 kts 129°
2026-05-04 20:31 64.80576 -32.27516 39345 ft 534 kts 130°
2026-05-04 20:31 64.75995 -32.13938 39344 ft 534 kts 130°
2026-05-04 20:32 64.71373 -32.00319 39343 ft 534 kts 130°
2026-05-04 20:32 64.66748 -31.86778 39342 ft 533 kts 130°
2026-05-04 20:33 64.62110 -31.73280 39340 ft 534 kts 130°
2026-05-04 20:33 64.57445 -31.59785 39346 ft 535 kts 130°
2026-05-04 20:34 64.52762 -31.46320 39344 ft 536 kts 130°
2026-05-04 20:34 64.48089 -31.32961 39346 ft 537 kts 130°
2026-05-04 20:35 64.43372 -31.19561 39337 ft 535 kts 130°
2026-05-04 20:35 64.38659 -31.06255 39335 ft 534 kts 131°
2026-05-04 20:36 64.34027 -30.93250 39328 ft 533 kts 131°
2026-05-04 20:36 64.30111 -30.82318 39347 ft 533 kts 131°
2026-05-04 20:37 64.25379 -30.69176 39327 ft 533 kts 131°
2026-05-04 20:37 64.21124 -30.57426 39322 ft 532 kts 131°
2026-05-04 20:38 64.16386 -30.44414 39318 ft 531 kts 131°
2026-05-04 20:38 64.11637 -30.31451 39307 ft 531 kts 131°
2026-05-04 20:39 64.06839 -30.18429 39295 ft 531 kts 131°
2026-05-04 20:39 64.02041 -30.05482 39302 ft 531 kts 131°
2026-05-04 20:40 63.97975 -29.91564 39309 ft 533 kts 119°
2026-05-04 20:40 63.94672 -29.77696 39305 ft 535 kts 119°
2026-05-04 20:41 63.91091 -29.62899 39306 ft 535 kts 119°
2026-05-04 20:41 63.87503 -29.48115 39287 ft 534 kts 119°
2026-05-04 20:42 63.83895 -29.33367 39287 ft 530 kts 119°
2026-05-04 20:42 63.80306 -29.18793 39313 ft 530 kts 119°
2026-05-04 20:43 63.76693 -29.04215 39301 ft 532 kts 120°
2026-05-04 20:43 63.73024 -28.89513 39299 ft 533 kts 120°
2026-05-04 20:44 63.69532 -28.75609 39289 ft 533 kts 120°
2026-05-04 20:44 63.66473 -28.63501 39289 ft 530 kts 120°
2026-05-04 20:45 63.62890 -28.49403 39282 ft 529 kts 120°
2026-05-04 20:45 63.59100 -28.34587 39283 ft 529 kts 120°
2026-05-04 20:46 63.55413 -28.20268 39283 ft 529 kts 120°
2026-05-04 20:46 63.51733 -28.06067 39286 ft 530 kts 121°
2026-05-04 20:47 63.48051 -27.91951 39290 ft 528 kts 121°
2026-05-04 20:47 63.44323 -27.77745 39302 ft 530 kts 121°
2026-05-04 20:48 63.40607 -27.63678 39301 ft 531 kts 121°
2026-05-04 20:48 63.36841 -27.49513 39301 ft 531 kts 121°
2026-05-04 20:49 63.33058 -27.35371 39300 ft 531 kts 121°
2026-05-04 20:49 63.29269 -27.21296 39287 ft 529 kts 121°
2026-05-04 20:50 63.25503 -27.07392 39282 ft 528 kts 121°
2026-05-04 20:50 63.21702 -26.93449 39288 ft 528 kts 122°
2026-05-04 20:51 63.17890 -26.79551 39284 ft 528 kts 122°
2026-05-04 20:51 63.14059 -26.65670 39286 ft 529 kts 122°
2026-05-04 20:52 63.10213 -26.51820 39301 ft 529 kts 122°
2026-05-04 20:52 63.06369 -26.38062 39299 ft 531 kts 122°
2026-05-04 20:53 63.02480 -26.24229 39303 ft 531 kts 122°
2026-05-04 20:53 62.98587 -26.10466 39303 ft 531 kts 122°
2026-05-04 20:54 62.94677 -25.96724 39306 ft 531 kts 122°
2026-05-04 20:54 62.90750 -25.83008 39295 ft 529 kts 123°
2026-05-04 20:55 62.86826 -25.69388 39289 ft 527 kts 123°
2026-05-04 20:55 62.82929 -25.55938 39288 ft 527 kts 123°
2026-05-04 20:56 62.78989 -25.42422 39293 ft 527 kts 123°
2026-05-04 20:56 62.75029 -25.28918 39293 ft 528 kts 123°
2026-05-04 20:57 62.71044 -25.15412 39290 ft 531 kts 123°
2026-05-04 20:57 62.67074 -25.02029 39300 ft 529 kts 123°
2026-05-04 20:58 62.63071 -24.88621 39299 ft 528 kts 124°
2026-05-04 20:58 62.59062 -24.75269 39298 ft 528 kts 124°
2026-05-04 20:59 62.55041 -24.61956 39296 ft 527 kts 124°
2026-05-04 20:59 62.51034 -24.48769 39299 ft 527 kts 124°
2026-05-04 21:00 62.46992 -24.35538 39301 ft 527 kts 124°
2026-05-04 21:00 62.42934 -24.22336 39301 ft 527 kts 124°
2026-05-04 21:01 62.38864 -24.09168 39301 ft 527 kts 124°
2026-05-04 21:01 62.34779 -23.96032 39315 ft 530 kts 124°
2026-05-04 21:02 62.30664 -23.82871 39300 ft 531 kts 124°
2026-05-04 21:02 62.26540 -23.69757 39302 ft 529 kts 124°
2026-05-04 21:03 62.22444 -23.56811 39298 ft 527 kts 125°
2026-05-04 21:03 62.18308 -23.43808 39299 ft 529 kts 125°
2026-05-04 21:04 62.14150 -23.30810 39299 ft 530 kts 125°
2026-05-04 21:04 62.09975 -23.17832 39287 ft 531 kts 125°
2026-05-04 21:05 62.05873 -23.05153 39307 ft 529 kts 125°
2026-05-04 21:05 62.01688 -22.92292 39304 ft 527 kts 125°
2026-05-04 21:06 61.97503 -22.79499 39295 ft 526 kts 126°
2026-05-04 21:06 61.93335 -22.66831 39297 ft 527 kts 126°
2026-05-04 21:07 61.89114 -22.54073 39281 ft 529 kts 126°
2026-05-04 21:07 61.84884 -22.41356 39299 ft 527 kts 126°
2026-05-04 21:08 61.80657 -22.28718 39299 ft 525 kts 126°
2026-05-04 21:08 61.76506 -22.16378 39296 ft 525 kts 126°
2026-05-04 21:09 61.72263 -22.03831 39298 ft 526 kts 126°
2026-05-04 21:09 61.67996 -21.91280 39304 ft 527 kts 126°
2026-05-04 21:10 61.63746 -21.78846 39294 ft 525 kts 126°
2026-05-04 21:10 61.59473 -21.66415 39302 ft 526 kts 127°
2026-05-04 21:11 61.55165 -21.53946 39305 ft 528 kts 127°
2026-05-04 21:11 61.50843 -21.41509 39306 ft 528 kts 127°
2026-05-04 21:12 61.46506 -21.29091 39308 ft 528 kts 127°
2026-05-04 21:12 61.42207 -21.16852 39285 ft 525 kts 127°
2026-05-04 21:13 61.37878 -21.04591 39288 ft 524 kts 127°
2026-05-04 21:13 61.33545 -20.92381 39285 ft 524 kts 127°
2026-05-04 21:14 61.29196 -20.80194 39279 ft 524 kts 127°
2026-05-04 21:14 61.24836 -20.68038 39281 ft 525 kts 127°
2026-05-04 21:15 61.20492 -20.55994 39293 ft 526 kts 128°
2026-05-04 21:15 61.16087 -20.43842 39294 ft 528 kts 128°
2026-05-04 21:16 61.11666 -20.31709 39290 ft 528 kts 128°
2026-05-04 21:16 61.07240 -20.19627 39290 ft 527 kts 128°
2026-05-04 21:17 61.02807 -20.07588 39273 ft 526 kts 128°
2026-05-04 21:17 60.98808 -19.95060 39315 ft 523 kts 116°
2026-05-04 21:18 60.95584 -19.81550 39283 ft 526 kts 116°
2026-05-04 21:18 60.92327 -19.68084 39287 ft 527 kts 116°
2026-05-04 21:19 60.89076 -19.54694 39277 ft 528 kts 116°
2026-05-04 21:19 60.85778 -19.41195 39282 ft 529 kts 116°
2026-05-04 21:20 60.82463 -19.27721 39268 ft 528 kts 116°
2026-05-04 21:20 60.79136 -19.14269 39256 ft 524 kts 117°
2026-05-04 21:21 60.76514 -19.03736 39256 ft 524 kts 117°
2026-05-04 21:21 60.73714 -18.92532 39256 ft 525 kts 117°
2026-05-04 21:22 60.70403 -18.79361 39251 ft 525 kts 117°
2026-05-04 21:22 60.67061 -18.66147 39267 ft 526 kts 117°
2026-05-04 21:23 60.63668 -18.52811 39254 ft 530 kts 117°
2026-05-04 21:23 60.60248 -18.39451 39239 ft 526 kts 117°
2026-05-04 21:24 60.56864 -18.26304 39240 ft 526 kts 117°
2026-05-04 21:24 60.53489 -18.13273 39235 ft 526 kts 117°
2026-05-04 21:25 60.50073 -18.00163 39236 ft 526 kts 118°
2026-05-04 21:25 60.46640 -17.87061 39228 ft 526 kts 118°
2026-05-04 21:26 60.43214 -17.74064 39236 ft 528 kts 118°
2026-05-04 21:26 60.39732 -17.60931 39234 ft 530 kts 118°
2026-05-04 21:27 60.36236 -17.47820 39235 ft 530 kts 118°